Location: *
(42.5508°N, 0.4719°E)
Time: 00:24:54
(UTC+00:00)

Daily predictions for brighter satellites

Satellite Brightness Start Highest point End
(mag) Time Altitude Azimuth Time Altitude Azimuth Time Altitude Azimuth
Cosmos 2333 Rocket 4.0 02:44:00 28° ENE 02:44:00 28° ENE 02:47:04 10° NE
ATLAS 2AS CENTAUR R/B 3.8 02:54:25 41° SE 02:55:49 44° ESE 03:03:20 10° NE
IDEFIX/ARIANE 42P 4.3 02:53:51 10° NE 02:58:15 28° E 02:58:15 28° E
USA 238 DEB 4.1 03:01:10 63° NE 03:01:26 63° NE 03:08:47 10° SE
USA 238 4.1 03:01:13 62° NE 03:01:32 63° NE 03:08:52 10° SE
Cosmos 2219 Rocket 3.3 03:08:19 40° NE 03:08:19 40° NE 03:11:58 10° NNE
Cosmos 2237 Rocket 3.9 03:14:23 21° SE 03:16:42 28° ESE 03:21:27 10° NE
NOSS 3-2 (A) 4.1 03:23:04 39° NNW 03:26:25 76° NE 03:34:51 10° SE
Cosmos 2322 Rocket 4.5 03:33:00 12° NNW 03:33:00 12° NNW 03:33:45 10° N
Cosmos 2181 Rocket 4.2 03:25:32 10° N 03:31:53 70° E 03:38:06 10° SSE
COSMOS 2428 3.1 03:33:56 56° NNE 03:33:56 56° NNE 03:38:22 10° NNE
USA 267 3.3 03:26:37 10° NE 03:32:58 63° NNW 03:32:58 63° NNW
Cosmos 2360 Rocket 4.0 03:41:57 20° NNW 03:41:57 20° NNW 03:44:09 10° N
Cosmos 1470 4.2 03:45:25 10° N 03:49:04 36° ENE 03:52:40 10° SE
NOSS 3-2 (C) 4.2 03:44:17 18° NNW 03:50:22 74° NE 03:58:49 10° SE
ADEOS 3.5 03:46:20 10° NNE 03:51:36 84° ESE 03:52:05 73° S
USA 32 4.4 03:49:56 10° S 03:55:04 63° E 04:00:16 10° N
USA 234 3.2 03:59:33 10° SE 04:06:06 89° SSW 04:09:35 31° NW
NOSS 3-4 (A) 3.5 04:03:38 37° SSW 04:06:10 75° ESE 04:12:28 10° NE
NOSS 3-4 (C) 3.5 04:03:39 36° SSW 04:06:15 74° ESE 04:12:34 10° NE
ADEOS II 4.4 04:02:43 10° NNW 04:02:58 11° NNW 04:02:58 11° NNW
SL-16 R/B 4.1 04:05:07 10° SSE 04:09:52 28° ESE 04:14:39 10° NE
Centaur D AC-28 4.1 04:10:14 11° S 04:12:13 14° SSE 04:15:14 10° ESE
Cosmos 1140 Rocket 4.0 04:12:09 10° S 04:17:13 57° ESE 04:22:17 10° NNE
Cosmos 389 Rocket 2.9 04:17:48 48° SE 04:18:26 59° E 04:21:50 10° NNE
Cosmos 614 Rocket 3.9 04:16:44 26° SSW 04:19:47 89° ESE 04:25:02 10° NNE
H-2A R/B 2.3 04:16:40 10° N 04:20:51 78° WNW 04:21:56 49° SSW
Cosmos 2278 Rocket 2.1 04:15:39 10° NNW 04:21:22 79° WSW 04:27:00 10° SSE
Celestis-02/Orion 38 4.5 04:17:53 10° SSE 04:23:03 88° WSW 04:28:22 10° NNW
COSMOS 2455 4.1 04:23:42 24° NW 04:23:45 24° NW 04:28:34 10° N
PAYLOAD A 3.8 04:19:23 10° NNE 04:24:15 88° ESE 04:29:17 10° SSW
ATLAS 3B R/B 2.8 04:17:39 10° NNW 04:24:23 76° NE 04:31:16 10° SE
Cosmos 2333 Rocket 2.9 04:26:03 33° WNW 04:26:09 34° NW 04:31:18 10° N
Cosmos 2184 Rocket 3.9 04:26:37 10° SSW 04:32:48 73° W 04:39:06 10° N
COSMO-SKYMED 1 4.3 04:31:09 10° SE 04:35:02 33° ENE 04:38:57 10° N
CENTAUR R/B 3.1 04:27:48 10° NW 04:35:56 85° WSW 04:44:41 10° SSE
IDEFIX/ARIANE 42P 3.1 04:33:11 10° N 04:37:58 37° WNW 04:39:03 33° W
Nadezhda 3 Rocket 4.1 04:37:39 10° N 04:44:04 81° E 04:50:24 10° S
Cosmos 1437 Rocket 4.4 04:41:22 10° SSE 04:44:50 35° E 04:48:19 10° NNE
ATLAS 2AS CENTAUR R/B 3.3 04:41:55 24° WSW 04:46:49 52° NW 04:54:38 10° NNE
NOSS 0 Rocket 4.2 04:43:38 24° WSW 04:47:11 48° WNW 04:53:10 10° NNE
Cosmos 1726 Rocket 3.8 04:43:47 10° N 04:48:07 71° E 04:52:24 10° SSE
Cosmos 2228 3.1 04:43:51 10° N 04:48:08 76° E 04:52:22 10° SSE
Cosmos 1025 Rocket 4.3 04:49:16 23° NW 04:49:16 23° NW 04:51:44 10° NNW
Cosmos 2219 Rocket 3.3 04:50:04 22° WNW 04:50:50 23° NW 04:55:11 10° N
Cosmos 1023 Rocket 4.4 04:46:16 10° SSW 04:51:26 69° WNW 04:56:35 10° NNE
PSLV R/B 4.1 04:48:36 10° NNE 04:52:17 63° E 04:55:56 10° S
CZ-4B R/B 2.7 04:48:22 10° N 04:52:23 71° WNW 04:56:10 10° SSW
Cosmos 921 Rocket 4.2 04:57:59 22° WSW 04:57:59 22° WSW 05:00:29 10° SSW
ALOS 4.0 04:53:52 10° NNE 04:58:11 35° E 05:02:26 10° SSE
Cosmos 1953 2.3 04:54:34 10° NNW 04:58:31 54° W 05:02:25 10° S
Meteor PRIRODA 3.6 04:55:23 10° NNE 04:59:08 87° WNW 05:02:52 10° SSW
ERBS 3.9 04:59:56 19° NW 05:00:23 20° NNW 05:02:59 10° NNE
Cosmos 2237 Rocket 2.5 04:56:19 16° SW 05:00:30 44° WNW 05:05:58 10° NNE
Okean O Rocket 3.3 04:57:08 10° NNE 05:01:12 36° E 05:05:14 10° SSE
Cosmos 676 Rocket 3.9 04:59:42 10° SSW 05:04:57 69° WNW 05:10:13 10° NNE
Cosmos 2074 Rocket 4.4 04:59:12 10° SW 05:05:00 40° WNW 05:10:50 10° N
In-Cosmos 22 4.1 05:00:03 10° S 05:05:23 89° E 05:10:52 10° N
Cosmos 1758 4.3 05:03:46 10° NW 05:07:01 24° W 05:10:16 10° SW
Cosmos 2058 Rocket 3.3 05:02:52 10° N 05:07:17 75° E 05:11:43 10° SSE
Meteor 2-10 4.1 05:03:54 10° N 05:09:07 84° E 05:14:30 10° S
MSX 4.5 05:04:46 10° N 05:09:49 33° WNW 05:14:51 10° SW
Cosmos 1908 4.3 05:06:47 10° N 05:10:31 47° E 05:14:13 10° SSE
CZ-2C R/B 2.9 05:06:20 10° N 05:11:13 42° WNW 05:16:02 10° SW
Cosmos 1295 Rocket 4.4 05:07:00 10° SSW 05:13:12 77° W 05:19:21 10° N
Cosmos 44 3.8 05:10:36 16° WNW 05:13:17 30° WSW 05:17:02 10° S
COBE Rocket 4.0 05:08:21 10° SSE 05:13:23 87° WSW 05:18:34 10° NNW
USA 267 4.3 05:09:50 10° NE 05:15:18 30° NNW 05:20:19 12° WNW
Cosmos 407 Rocket 4.3 05:12:01 13° WSW 05:15:55 30° WNW 05:20:26 10° N
Cosmos 2369 Rocket 4.1 05:12:04 10° N 05:16:54 28° NE 05:21:41 10° ESE
Meteor 1-31 Rocket 3.4 05:13:57 10° N 05:17:23 32° WNW 05:20:47 10° SW
COSMOS 2428 4.3 05:15:58 14° WNW 05:17:49 15° NW 05:21:08 10° N
Cosmos 1980 4.5 05:13:39 13° WSW 05:17:56 31° NW 05:22:56 10° N
SL-8 Rocket 4.4 05:12:01 10° S 05:18:08 67° E 05:24:15 10° NNE
Helios 1A Rocket 3.5 05:14:11 10° NNE 05:18:20 64° ESE 05:22:26 10° S
Cosmos 44 Rocket 3.5 05:16:03 10° NNW 05:20:47 68° NE 05:25:25 10° SE
Cosmos 1707 3.9 05:18:29 10° SW 05:21:36 23° WNW 05:24:46 10° NNW
SKYMED 2 3.5 05:18:38 10° S 05:22:58 74° WSW 05:27:19 10° NNW
Cosmos 1470 4.3 05:22:28 10° NW 05:24:46 15° W 05:27:05 10° WSW
PSLV R/B 4.1 05:22:31 10° SW 05:24:54 30° SSE 05:27:18 10° E
CZ-4B R/B 3.7 05:20:09 10° NNE 05:25:26 62° ESE 05:30:39 10° S
RESURS DK-1 2.5 05:23:01 10° SW 05:27:03 52° WNW 05:31:07 10° NNE
Milstar 3 Cent rocket 4.3 05:27:50 10° SSW 05:30:26 14° S 05:32:53 10° SE
Cosmos 1892 Rocket 3.9 05:27:02 10° SSW 05:31:16 43° WNW 05:35:30 10° N
MOS 1-B 4.3 05:26:22 10° N 05:32:09 68° WNW 05:37:54 10° SSW
Cosmos 1726 2.2 05:29:53 10° NNW 05:33:27 51° W 05:37:01 10° S
Cosmos 1484 Rocket 2.9 05:30:22 10° N 05:34:01 47° WNW 05:37:43 10° SSW
BREEZE-M DEB (TANK) 3.3 05:32:21 10° WNW 05:35:27 22° N 05:37:24 10° NE
Meteor 1-4 Rocket 3.9 05:33:49 10° WSW 05:36:22 19° WNW 05:38:55 10° NNW
GP-B 3.6 05:35:54 10° SSW 05:40:01 38° W 05:44:10 10° NNW
SJ-12 4.0 05:36:18 10° N 05:40:20 57° WNW 05:44:21 10° SSW
Cosmos 1850 Rocket 4.0 05:37:57 10° SSW 05:43:07 82° WNW 05:48:20 10° NNE
Cosmos 1674 2.8 05:41:40 10° SSW 05:45:15 49° W 05:48:54 10° N
Meteor 1-24 Rocket 3.9 05:40:04 10° S 05:45:46 89° ESE 05:51:45 10° N
USA 234 4.4 05:44:32 10° S 05:49:38 24° SW 05:54:46 10° WNW
Cosmos 1943 Rocket 2.9 05:45:09 10° NNW 05:50:46 58° ENE 05:56:20 10° SE
